Location: Miami, Florida
(25.6830°N, 80.1700°W)
Time: 16:26:35
(UTC-04:00)

Vanguard 2 Rocket - All Passes

Search period start: 23 November 2017 00:00
Search period end: 03 December 2017 00:00
Orbit: 556 x 3326 km, 32.9° (Epoch: 23 November)

Date Brightness Start Highest point End Pass type
(mag) Time Alt. Az. Time Alt. Az. Time Alt. Az.
23 Nov - 02:03:51 10° WSW 02:24:13 89° NNW 02:37:44 10° ENE visible
23 Nov - 04:25:09 10° W 04:41:57 63° N 04:51:31 10° ENE visible
23 Nov - 06:46:13 10° WNW 06:58:12 68° NNE 07:04:45 10° E visible
23 Nov - 09:04:35 10° WNW 09:11:48 41° SW 09:16:23 10° SE daylight
23 Nov - 20:45:25 10° SE 20:47:03 10° SE 20:48:43 10° SE visible
23 Nov - 22:46:57 10° SSW 23:04:13 40° SE 23:20:45 10° E visible
24 Nov - 01:01:45 10° SW 01:22:22 79° SSE 01:37:46 10° ENE visible
24 Nov - 03:21:46 10° W 03:40:41 69° NNW 03:52:09 10° ENE visible
24 Nov - 05:43:35 10° WNW 05:57:54 63° N 06:05:45 10° E visible
24 Nov - 08:02:59 10° WNW 08:12:41 69° SSW 08:18:12 10° SE daylight
24 Nov - 21:48:00 10° S 22:02:40 29° SE 22:18:01 10° E visible
25 Nov - 00:00:25 10° SW 00:20:21 66° SSE 00:37:18 10° ENE visible
25 Nov - 02:18:42 10° WSW 02:39:01 77° NNW 02:52:31 10° ENE visible
25 Nov - 04:40:27 10° W 04:57:06 62° N 05:06:33 10° E visible
25 Nov - 07:01:01 10° WNW 07:13:06 87° NNE 07:19:38 10° ESE visible
25 Nov - 09:20:05 10° W 09:25:52 23° SW 09:29:57 10° S daylight
25 Nov - 20:50:34 10° S 21:01:24 19° SE 21:13:16 10° E visible
25 Nov - 22:59:57 10° SW 23:18:23 53° SE 23:36:13 10° ENE visible
26 Nov - 01:16:12 10° WSW 01:36:59 88° NNW 01:52:32 10° ENE visible
26 Nov - 03:37:05 10° W 03:55:47 65° N 04:07:05 10° ENE visible
26 Nov - 05:58:33 10° WNW 06:12:58 73° NNE 06:20:46 10° E visible
26 Nov - 08:17:58 10° WNW 08:27:00 43° SW 08:32:25 10° SSE daylight
26 Nov - 22:00:21 10° SSW 22:16:41 41° SE 22:34:16 10° ENE visible
27 Nov - 00:14:29 10° WSW 00:34:47 81° SSE 00:52:08 10° ENE visible
27 Nov - 02:33:51 10° W 02:54:00 70° NNW 03:07:23 10° ENE visible
27 Nov - 04:55:37 10° WNW 05:12:15 67° N 05:21:36 10° E visible
27 Nov - 07:15:49 10° WNW 07:27:42 68° SSW 07:34:13 10° SE visible
27 Nov - 09:37:18 10° WSW 09:39:43 12° SW 09:41:49 10° SSW daylight
27 Nov - 21:01:44 10° S 21:15:22 29° SE 21:31:04 10° E visible
27 Nov - 23:13:35 10° SW 23:32:36 68° SSE 23:51:14 10° ENE visible
28 Nov - 01:31:05 10° WSW 01:51:50 77° NNW 02:07:20 10° ENE visible
28 Nov - 03:52:23 10° W 04:10:59 65° N 04:22:08 10° E visible
28 Nov - 06:13:23 10° WNW 06:27:49 89° SSW 06:35:35 10° ESE visible
28 Nov - 08:33:26 10° W 08:40:58 26° SW 08:45:59 10° S daylight
28 Nov - 20:04:41 10° S 20:14:27 19° SE 20:25:51 10° E visible
28 Nov - 22:13:30 10° SW 22:30:41 55° SE 22:49:40 10° ENE visible
29 Nov - 00:29:01 10° WSW 00:49:26 86° NNW 01:06:55 10° ENE visible
29 Nov - 02:49:09 10° W 03:09:10 67° N 03:22:21 10° ENE visible
29 Nov - 05:10:35 10° WNW 05:27:19 77° NNE 05:36:35 10° ESE visible
29 Nov - 07:30:47 10° WNW 07:41:55 45° SW 07:48:23 10° SSE daylight
29 Nov - 21:14:16 10° SSW 21:29:12 41° SE 21:47:14 10° ENE visible
29 Nov - 23:27:44 10° WSW 23:47:00 82° SSE 00:06:03 10° ENE visible
30 Nov - 01:46:14 10° W 02:06:53 71° N 02:22:14 10° ENE visible
30 Nov - 04:07:32 10° WNW 04:26:09 70° N 04:37:12 10° E visible
30 Nov - 06:28:10 10° WNW 06:42:20 68° SSW 06:50:07 10° SE visible
30 Nov - 08:50:13 10° W 08:54:42 14° SW 08:58:16 10° SSW daylight
30 Nov - 20:16:01 10° S 20:28:14 29° SE 20:43:36 10° E visible
30 Nov - 22:27:15 10° SW 22:44:49 69° SSE 23:04:38 10° ENE visible
01 Dec - 00:43:55 10° WSW 01:04:18 77° NNW 01:21:45 10° ENE visible
01 Dec - 03:04:25 10° WNW 03:24:24 68° N 03:37:26 10° E visible
01 Dec - 05:25:25 10° WNW 05:42:07 87° SSW 05:51:22 10° ESE visible
01 Dec - 07:46:14 10° W 07:55:48 29° SW 08:01:56 10° SSE daylight
01 Dec - 19:19:19 10° SSE 19:27:45 18° SE 19:37:59 10° E visible
01 Dec - 21:27:34 10° SW 21:43:05 55° SE 22:02:35 10° ENE visible
01 Dec - 23:42:19 10° WSW 00:01:40 85° NNW 00:20:50 10° ENE visible
02 Dec - 02:01:31 10° W 02:22:07 68° N 02:37:16 10° E visible
02 Dec - 04:22:30 10° WNW 04:41:12 81° NNE 04:52:10 10° ESE visible
02 Dec - 06:43:08 10° WNW 06:56:30 48° SW 07:04:13 10° SSE visible
02 Dec - 20:28:41 10° SSW 20:41:56 41° SE 20:59:43 10° ENE visible
02 Dec - 22:41:30 10° WSW 22:59:12 84° SSE 23:19:26 10° ENE visible
